Date String (YYYY-MM-DD hh:mm:ss) UTC,Instrument flags,Ambient pressure (hPa),Sample flow (lpm),Bypass flow (lpm),Sample temperature (°C),Ambient temperature (°C),ASC tube jacket temperature (°C),LED temperature (°C),Box temperature (°C),Sample RH (%),Span deviation,Mass concentration (μg/m³),Mass concentration (μg/m³),Mass concentration (μg/m³)
DateTimeUTC,F1_M11,P_M11,Q1_M11,Q2_M11,T1_M11,T2_M11,T3_M11,T4_M11,T5_M11,U1_M11,ZSPAN_M11,X0_M11,X2_M11,X1_M11
2022-12-16 19:00:00,,0824.0,4.98,0.00,22.0,20.5,00.0,30.9,23.5,03.1,0000.0,0002.00,0001.53,0001.35
2022-12-16 19:01:00,,0824.0,5.04,0.00,21.9,20.5,00.0,30.9,23.5,03.1,0000.0,0002.04,0001.54,0001.35
2022-12-16 19:02:00,,0824.0,4.97,0.00,21.9,20.5,00.0,30.9,23.5,03.1,0000.0,0002.10,0001.53,0001.35
2022-12-16 19:03:00,,0823.9,5.04,0.00,21.9,20.4,00.0,30.9,23.4,03.0,0000.0,0002.18,0001.55,0001.35
2022-12-16 19:04:00,,0824.0,4.97,0.00,21.9,20.4,00.0,30.8,23.3,03.1,0000.0,0002.28,0001.59,0001.36
2022-12-16 19:05:00,,0823.9,5.03,0.00,21.9,20.3,00.0,30.8,23.3,03.1,0000.0,0002.32,0001.61,0001.36
2022-12-16 19:06:00,,0824.0,4.99,0.00,21.8,20.3,00.0,30.8,23.2,03.1,0000.0,0002.35,0001.63,0001.37
2022-12-16 19:07:00,,0824.0,4.97,0.00,21.8,20.2,00.0,30.8,23.2,03.1,0000.0,0002.33,0001.62,0001.37
2022-12-16 19:08:00,,0824.0,5.03,0.00,21.8,20.2,00.0,30.8,23.2,03.2,0000.0,0002.34,0001.62,0001.35
2022-12-16 19:09:00,,0823.9,4.97,0.00,21.8,20.2,00.0,30.8,23.2,03.1,0000.0,0003.33,0001.73,0001.36
2022-12-16 19:10:00,,0823.9,5.04,0.00,21.7,20.4,00.0,30.7,23.2,03.2,0000.0,0004.63,0001.85,0001.36
2022-12-16 19:11:00,,0824.0,4.96,0.00,21.8,21.4,00.0,30.7,23.6,03.1,0000.0,0005.87,0001.92,0001.35
2022-12-16 19:12:00,,0824.0,5.01,0.00,22.0,22.4,00.0,30.7,24.0,03.1,0000.0,0006.64,0001.95,0001.34
2022-12-16 19:13:00,,0824.0,5.01,0.00,22.1,22.3,00.0,30.8,24.1,03.2,0000.0,0006.58,0001.95,0001.33
2022-12-16 19:14:00,,0824.0,5.00,0.00,22.1,21.9,00.0,30.8,24.0,03.1,0000.0,0006.50,0001.94,0001.33
2022-12-16 19:15:00,,0824.0,4.99,0.00,22.1,21.6,00.0,30.8,24.0,03.2,0000.0,0006.40,0001.90,0001.31
2022-12-16 19:16:00,,0824.0,5.04,0.00,22.1,21.4,00.0,30.9,23.9,03.2,0000.0,0006.36,0001.88,0001.30
2022-12-16 19:17:00,,0823.9,4.98,0.00,22.1,21.3,00.0,30.9,23.9,03.1,0000.0,0006.28,0001.85,0001.29
2022-12-16 19:18:00,,0823.9,4.98,0.00,22.1,21.2,00.0,30.9,23.9,03.1,0000.0,0006.34,0001.87,0001.30
2022-12-16 19:19:00,,0823.8,5.04,0.00,22.1,21.0,00.0,30.9,23.8,03.3,0000.0,0006.34,0001.87,0001.30
2022-12-16 19:20:00,,0823.8,4.97,0.00,22.1,20.9,00.0,30.9,23.8,03.7,0000.0,0005.36,0001.77,0001.31
2022-12-16 19:21:00,,0823.8,5.03,0.00,22.1,20.8,00.0,30.9,23.8,03.8,0000.0,0005.47,0001.71,0001.32
2022-12-16 19:22:00,,0823.8,4.99,0.00,22.0,20.7,00.0,30.9,23.6,03.8,0000.0,0004.15,0001.62,0001.33
2022-12-16 19:23:00,,0823.7,4.97,0.00,22.0,20.6,00.0,30.9,23.6,03.8,0000.0,0003.52,0001.62,0001.34
2022-12-16 19:24:00,,0823.7,5.04,0.00,22.0,20.5,00.0,30.9,23.5,03.8,0000.0,0003.55,0001.64,0001.36
2022-12-16 19:25:00,,0823.7,4.97,0.00,21.9,20.4,00.0,30.9,23.4,03.7,0000.0,0003.64,0001.69,0001.38
2022-12-16 19:26:00,,0823.8,5.04,0.00,21.9,20.3,00.0,30.8,23.4,03.7,0000.0,0003.65,0001.70,0001.40
2022-12-16 19:27:00,,0823.7,4.96,0.00,21.8,20.2,00.0,30.8,23.3,03.7,0000.0,0003.73,0001.73,0001.40
2022-12-16 19:28:00,,0823.7,5.03,0.00,21.8,20.1,00.0,30.8,23.2,03.7,0000.0,0003.79,0001.75,0001.41
2022-12-16 19:29:00,,0823.7,4.96,0.00,21.7,20.1,00.0,30.8,23.2,03.7,0000.0,0003.73,0001.73,0001.41
2022-12-16 19:30:00,,0823.7,5.05,0.00,21.8,20.9,00.0,30.7,23.5,03.7,0000.0,0003.76,0001.74,0001.42
2022-12-16 19:31:00,,0823.8,4.95,0.00,21.9,22.0,00.0,30.7,23.8,03.7,0000.0,0003.99,0001.75,0001.41
2022-12-16 19:32:00,,0823.8,5.04,0.00,22.0,21.9,00.0,30.7,23.9,03.6,0000.0,0003.84,0001.75,0001.40
2022-12-16 19:33:00,,0823.7,4.97,0.00,22.0,21.4,00.0,30.8,23.8,03.7,0000.0,0003.59,0001.76,0001.40
2022-12-16 19:34:00,,0823.7,5.02,0.00,21.9,20.9,00.0,30.8,23.6,03.7,0000.0,0003.62,0001.75,0001.40
2022-12-16 19:35:00,,0823.7,4.99,0.00,21.8,20.7,00.0,30.8,23.4,03.7,0000.0,0003.59,0001.74,0001.40
2022-12-16 19:36:00,,0823.7,4.97,0.00,21.8,20.4,00.0,30.8,23.4,03.7,0000.0,0003.69,0001.76,0001.41
2022-12-16 19:37:00,,0823.7,5.06,0.00,21.8,20.3,00.0,30.7,23.3,03.8,0000.0,0004.27,0001.76,0001.40
2022-12-16 19:38:00,,0823.7,4.97,0.00,21.7,20.2,00.0,30.7,23.3,03.8,0000.0,0004.37,0001.77,0001.41
2022-12-16 19:39:00,,0823.7,5.04,0.00,21.7,20.0,00.0,30.7,23.2,03.8,0000.0,0004.32,0001.75,0001.41
2022-12-16 19:40:00,,0823.7,4.97,0.00,21.6,20.0,00.0,30.7,23.2,03.8,0000.0,0004.35,0001.78,0001.43
2022-12-16 19:41:00,,0823.8,5.03,0.00,21.6,19.9,00.0,30.6,23.2,03.9,0000.0,0004.34,0001.79,0001.45
2022-12-16 19:42:00,,0823.7,4.97,0.00,21.6,20.0,00.0,30.6,23.2,03.8,0000.0,0004.36,0001.82,0001.49
2022-12-16 19:43:00,,0823.7,4.99,0.00,21.6,21.0,00.0,30.5,23.4,03.8,0000.0,0003.39,0001.82,0001.51
2022-12-16 19:44:00,,0823.7,5.05,0.00,21.8,21.9,00.0,30.5,23.7,03.8,0000.0,0003.31,0001.83,0001.53
2022-12-16 19:45:00,,0823.7,4.95,0.00,21.8,21.7,00.0,30.6,23.7,03.8,0000.0,0003.34,0001.87,0001.56
2022-12-16 19:46:00,,0823.7,5.04,0.00,21.8,21.2,00.0,30.6,23.6,03.8,0000.0,0003.31,0001.88,0001.57
2022-12-16 19:47:00,,0823.7,4.98,0.00,21.7,20.8,00.0,30.7,23.4,03.8,0000.0,0003.27,0001.88,0001.58
2022-12-16 19:48:00,,0823.7,4.97,0.00,21.7,20.5,00.0,30.7,23.3,03.8,0000.0,0002.95,0001.92,0001.61
2022-12-16 19:49:00,,0823.7,5.05,0.00,21.6,20.3,00.0,30.6,23.2,03.8,0000.0,0002.79,0001.93,0001.62
2022-12-16 19:50:00,,0823.7,4.97,0.00,21.6,20.1,00.0,30.6,23.1,03.8,0000.0,0002.91,0001.96,0001.64
2022-12-16 19:51:00,,0823.7,5.02,0.00,21.6,20.0,00.0,30.6,23.1,03.9,0000.0,0002.94,0001.97,0001.64
2022-12-16 19:52:00,,0823.7,4.98,0.00,21.5,19.8,00.0,30.5,23.0,04.0,0000.0,0003.01,0001.99,0001.64
2022-12-16 19:53:00,,0823.7,4.99,0.00,21.5,20.2,00.0,30.5,23.1,04.0,0000.0,0003.08,0001.99,0001.64
2022-12-16 19:54:00,,0823.8,5.02,0.00,21.6,21.3,00.0,30.5,23.4,03.9,0000.0,0003.00,0001.97,0001.64
2022-12-16 19:55:00,,0823.7,4.97,0.00,21.7,21.9,00.0,30.5,23.7,03.9,0000.0,0002.94,0001.96,0001.64
2022-12-16 19:56:00,,0823.7,5.05,0.00,21.7,21.4,00.0,30.5,23.6,04.0,0000.0,0002.95,0001.96,0001.64
2022-12-16 19:57:00,,0823.6,4.95,0.00,21.7,20.9,00.0,30.6,23.4,04.0,0000.0,0003.00,0001.96,0001.63
2022-12-16 19:58:00,,0823.6,5.03,0.00,21.6,20.5,00.0,30.6,23.3,04.0,0000.0,0003.00,0001.95,0001.63
2022-12-16 19:59:00,,0823.6,4.98,0.00,21.6,20.3,00.0,30.6,23.2,04.0,0000.0,0002.97,0001.95,0001.65
